KS4XQ Weather Reports


Display with metric or nautical units.
time (UTC)temp
F
wind
direction
speed
MPH
gust
MPH
rain 1hr
in
rain 24hr
in
rain mn
in
humidity
%
barometer
mb
20260905222607 75 294 0.0 0.0 0.00 0.40 0.40 96 1012.2
20260905222407 75 294 0.0 0.0 0.00 0.40 0.40 96 1012.1
20260905222208 75 294 0.0 0.0 0.00 0.40 0.40 96 1012.1
20260905222008 74 294 0.0 0.0 0.00 0.40 0.40 95 1011.9
20260905221808 74 294 0.0 0.0 0.00 0.40 0.40 96 1011.9
20260905221608 74 294 0.0 0.0 0.00 0.40 0.40 96 1011.9
20260905221409 74 294 0.0 0.0 0.00 0.40 0.40 96 1011.9
20260905220806 74 294 0.0 0.0 0.00 0.40 0.40 96 1011.9
20260905220608 74 294 0.0 0.0 0.00 0.40 0.40 96 1012.0
20260905220407 74 294 0.0 0.0 0.00 0.40 0.40 96 1012.0
20260905220209 74 294 0.0 0.0 0.00 0.40 0.40 95 1012.0
20260905220009 74 294 0.0 0.0 0.00 0.40 0.40 95 1011.9
20260905215807 74 294 0.0 0.0 0.00 0.40 0.40 95 1012.0
20260905215607 74 294 0.0 0.0 0.00 0.40 0.40 95 1012.0
20260905215407 74 294 0.0 0.0 0.00 0.40 0.40 95 1012.1
20260905215207 74 294 0.0 0.0 0.00 0.40 0.40 95 1012.0
20260905215007 74 294 0.0 0.0 0.00 0.40 0.40 95 1012.0
20260905214609 74 294 0.0 0.0 0.00 0.40 0.40 95 1011.9
20260905214407 74 294 0.0 0.0 0.00 0.40 0.40 95 1011.8
20260905214207 74 294 0.0 0.0 0.00 0.40 0.40 96 1011.8
20260905214007 74 294 0.0 0.0 0.00 0.40 0.40 96 1011.8
20260905213808 74 294 0.0 0.0 0.00 0.40 0.40 96 1011.8
20260905213207 74 294 0.0 0.0 0.00 0.40 0.40 96 1011.9
20260905213007 74 294 0.0 0.0 0.00 0.40 0.40 96 1012.0
20260905212810 74 294 0.0 0.0 0.00 0.40 0.40 97 1012.1
20260905212607 74 294 0.0 0.0 0.00 0.40 0.40 97 1012.2
20260905212408 74 294 0.0 0.0 0.00 0.40 0.40 97 1012.2
20260905212207 74 294 0.0 0.0 0.00 0.40 0.40 96 1012.2
20260905212008 74 294 0.0 0.0 0.00 0.40 0.40 97 1012.3
20260905211407 74 294 0.0 0.0 0.00 0.40 0.40 97 1012.7
20260905211208 73 294 0.0 0.0 0.00 0.40 0.40 97 1012.8
20260905211007 73 294 0.0 1.0 0.00 0.40 0.40 96 1012.7
20260905210808 73 294 0.0 2.0 0.00 0.40 0.40 96 1012.7
20260905210607 73 294 0.0 2.0 0.00 0.40 0.40 96 1012.7
20260905210408 73 294 0.0 2.0 0.00 0.40 0.40 95 1012.7
20260905210207 73 294 0.0 2.0 0.00 0.40 0.40 95 1012.7
20260905210010 73 294 0.0 1.0 0.00 0.40 0.40 96 1012.7
20260905205607 73 294 0.0 0.0 0.00 0.40 0.40 96 1012.7
20260905205208 73 294 0.0 0.0 0.00 0.40 0.40 96 1012.7
20260905205006 73 294 0.0 0.0 0.00 0.40 0.40 95 1012.8
20260905204807 73 294 0.0 0.0 0.00 0.40 0.40 95 1012.7
20260905204606 73 294 0.0 0.0 0.00 0.40 0.40 95 1012.7
20260905204206 73 294 0.0 0.0 0.00 0.40 0.40 94 1012.4
20260905204007 73 294 0.0 0.0 0.00 0.40 0.40 94 1012.4
20260905203806 73 294 0.0 0.0 0.00 0.40 0.40 94 1012.4
20260905203610 73 294 0.0 0.0 0.00 0.40 0.40 94 1012.3
20260905203406 73 294 0.0 0.0 0.00 0.40 0.40 94 1012.3
20260905203006 73 294 0.0 0.0 0.00 0.40 0.40 94 1012.3
20260905202806 73 294 0.0 0.0 0.00 0.40 0.40 94 1012.3
20260905202406 73 294 0.0 0.0 0.00 0.40 0.40 95 1012.6
20260905202206 73 294 0.0 1.0 0.00 0.40 0.40 95 1012.6
20260905202006 73 294 0.0 1.0 0.00 0.40 0.40 95 1012.7
20260905201606 73 294 0.0 2.0 0.01 0.40 0.40 96 1012.8
20260905201405 73 294 0.0 2.0 0.03 0.40 0.40 95 1012.8
20260905201206 72 294 0.0 2.0 0.04 0.40 0.40 95 1012.8
20260905201006 72 294 0.0 2.0 0.06 0.40 0.40 96 1013.1
20260905200808 72 294 0.0 2.0 0.08 0.40 0.40 95 1013.2
20260905200207 72 294 0.0 2.0 0.14 0.40 0.40 94 1013.4
20260905200008 72 294 1.0 2.0 0.18 0.40 0.40 95 1013.4
20260905195807 72 294 1.0 2.0 0.22 0.40 0.40 95 1013.5
20260905195606 72 294 1.0 2.0 0.26 0.40 0.40 95 1013.7
20260905195407 72 41 1.0 3.0 0.27 0.40 0.40 95 1013.9
20260905195206 72 355 1.0 3.0 0.27 0.40 0.40 95 1013.9
20260905195009 72 327 1.0 3.0 0.28 0.40 0.40 94 1013.8
20260905194607 72 115 1.0 2.0 0.32 0.40 0.40 94 1014.0
20260905194208 72 108 1.0 2.0 0.35 0.40 0.40 93 1014.2
20260905194007 72 108 1.0 2.0 0.36 0.40 0.40 93 1014.0
20260905193807 72 169 0.0 2.0 0.37 0.40 0.40 91 1013.7
20260905193606 72 281 0.0 2.0 0.39 0.40 0.40 92 1013.6
20260905193408 72 288 0.0 2.0 0.40 0.40 0.40 91 1013.5
20260905193206 72 285 0.0 2.0 0.40 0.40 0.40 92 1013.3
20260905193006 72 285 0.0 2.0 0.40 0.40 0.40 91 1013.3
20260905192806 73 194 0.0 1.0 0.40 0.40 0.40 90 1013.1
20260905192605 73 159 0.0 1.0 0.40 0.40 0.40 91 1013.2
20260905192405 73 159 0.0 2.0 0.40 0.40 0.40 90 1013.2
20260905192205 73 159 1.0 2.0 0.40 0.40 0.40 90 1013.4
20260905192005 73 214 1.0 3.0 0.40 0.40 0.40 90 1013.6
20260905191805 73 214 1.0 3.0 0.39 0.39 0.39 90 1013.7
20260905191405 73 149 2.0 5.0 0.37 0.37 0.37 91 1014.3
20260905191205 73 201 2.0 5.0 0.35 0.35 0.35 91 1014.4
20260905190805 73 273 2.0 5.0 0.31 0.31 0.31 91 1014.5
20260905190607 73 271 2.0 5.0 0.29 0.29 0.29 91 1014.6
20260905190405 73 324 2.0 4.0 0.27 0.27 0.27 90 1014.7
20260905190205 74 320 3.0 4.0 0.24 0.24 0.24 90 1014.6
20260905185807 74 313 4.0 10.0 0.16 0.16 0.16 87 1014.5
20260905185406 75 32 5.0 10.0 0.13 0.13 0.13 86 1014.3
20260905185209 76 341 5.0 10.0 0.12 0.12 0.12 84 1014.1
20260905185006 77 298 4.0 10.0 0.11 0.11 0.11 83 1013.8
20260905184806 79 22 4.0 10.0 0.09 0.09 0.09 81 1013.4
20260905184606 81 348 4.0 11.0 0.07 0.07 0.07 79 1013.3
20260905184406 83 259 3.0 11.0 0.05 0.05 0.05 78 1013.0
20260905184209 85 38 4.0 11.0 0.04 0.04 0.04 76 1013.0
20260905184006 87 66 4.0 19.0 0.03 0.03 0.03 71 1013.0
20260905183806 90 19 4.0 19.0 0.02 0.02 0.02 69 1012.9
20260905183606 91 65 3.0 19.0 0.00 0.00 0.00 67 1012.7
20260905183407 93 86 3.0 19.0 0.00 0.00 0.00 60 1012.7
20260905183209 95 166 2.0 14.0 0.00 0.00 0.00 60 1012.6
20260905183006 96 141 1.0 4.0 0.00 0.00 0.00 57 1012.2
20260905182806 96 338 1.0 3.0 0.00 0.00 0.00 55 1012.2
20260905182606 96 34 1.0 3.0 0.00 0.00 0.00 53 1012.3
20260905182406 97 96 1.0 3.0 0.00 0.00 0.00 55 1012.4
20260905182209 97 38 1.0 3.0 0.00 0.00 0.00 53 1012.4
20260905182006 97 13 1.0 3.0 0.00 0.00 0.00 53 1012.4
20260905181806 97 19 1.0 3.0 0.00 0.00 0.00 52 1012.4
20260905181606 96 316 1.0 5.0 0.00 0.00 0.00 55 1012.4
20260905181406 96 65 1.0 5.0 0.00 0.00 0.00 53 1012.5
20260905181209 96 103 1.0 5.0 0.00 0.00 0.00 51 1012.4
20260905180806 96 62 1.0 5.0 0.00 0.00 0.00 52 1012.5
20260905180407 96 180 1.0 3.0 0.00 0.00 0.00 56 1012.7
20260905180209 95 211 1.0 3.0 0.00 0.00 0.00 53 1012.7
20260905180008 96 236 1.0 3.0 0.00 0.00 0.00 53 1012.7
20260905175806 96 9 1.0 3.0 0.00 0.00 0.00 52 1012.8
20260905175406 97 32 1.0 3.0 0.00 0.00 0.00 54 1013.0
20260905175209 97 94 1.0 3.0 0.00 0.00 0.00 54 1012.8
20260905175006 98 84 1.0 3.0 0.00 0.00 0.00 53 1012.8
20260905174806 98 211 1.0 3.0 0.00 0.00 0.00 54 1013.0
20260905174606 98 211 1.0 3.0 0.00 0.00 0.00 52 1013.0
20260905174206 98 186 1.0 3.0 0.00 0.00 0.00 50 1013.1
20260905174006 98 333 1.0 3.0 0.00 0.00 0.00 49 1013.1
20260905173807 98 84 2.0 5.0 0.00 0.00 0.00 49 1013.1
20260905173606 98 5 2.0 6.0 0.00 0.00 0.00 51 1013.1
20260905173406 98 237 2.0 6.0 0.00 0.00 0.00 51 1013.1
20260905173206 98 232 3.0 6.0 0.00 0.00 0.00 51 1013.0
20260905173006 98 219 3.0 6.0 0.00 0.00 0.00 54 1013.0
20260905172606 98 234 2.0 5.0 0.00 0.00 0.00 52 1013.0
20260905172406 98 290 1.0 4.0 0.00 0.00 0.00 49 1013.1
20260905172206 99 333 1.0 3.0 0.00 0.00 0.00 51 1013.1
20260905172006 99 202 1.0 3.0 0.00 0.00 0.00 54 1013.1
20260905171807 99 217 1.0 5.0 0.00 0.00 0.00 53 1013.1
20260905171606 98 171 1.0 5.0 0.00 0.00 0.00 53 1013.1
20260905171406 98 24 1.0 5.0 0.00 0.00 0.00 51 1013.3
20260905171206 98 41 2.0 7.0 0.00 0.00 0.00 51 1013.2
20260905170807 97 132 2.0 7.0 0.00 0.00 0.00 54 1013.4
20260905170408 97 223 2.0 7.0 0.00 0.00 0.00 57 1013.5
20260905170206 96 205 2.0 6.0 0.00 0.00 0.00 56 1013.4
20260905170008 96 96 1.0 3.0 0.00 0.00 0.00 56 1013.4
20260905165808 96 139 2.0 4.0 0.00 0.00 0.00 57 1013.5
20260905165606 95 126 1.0 4.0 0.00 0.00 0.00 56 1013.6
20260905165406 95 211 1.0 4.0 0.00 0.00 0.00 59 1013.6
20260905165006 95 272 1.0 4.0 0.00 0.00 0.00 56 1013.8
20260905164808 95 298 1.0 3.0 0.00 0.00 0.00 57 1013.7
20260905164606 95 211 1.0 3.0 0.00 0.00 0.00 57 1013.9
20260905164207 94 64 0.0 2.0 0.00 0.00 0.00 58 1014.0
20260905163811 94 309 1.0 2.0 0.00 0.00 0.00 59 1013.9
20260905163606 94 294 1.0 2.0 0.00 0.00 0.00 58 1014.0
20260905163406 94 261 1.0 2.0 0.00 0.00 0.00 57 1014.0
20260905163208 94 355 1.0 2.0 0.00 0.00 0.00 58 1014.0
20260905163006 94 355 1.0 2.0 0.00 0.00 0.00 59 1014.1
20260905162808 94 355 1.0 2.0 0.00 0.00 0.00 59 1014.1
20260905162608 94 327 1.0 2.0 0.00 0.00 0.00 59 1014.1
20260905162406 94 327 1.0 2.0 0.00 0.00 0.00 58 1014.1
20260905162208 95 327 1.0 2.0 0.00 0.00 0.00 58 1014.1
20260905162008 95 306 1.0 4.0 0.00 0.00 0.00 59 1014.3
20260905161808 95 306 1.0 4.0 0.00 0.00 0.00 58 1014.3
20260905161409 95 355 1.0 4.0 0.00 0.00 0.00 57 1014.2
20260905161207 95 351 1.0 3.0 0.00 0.00 0.00 58 1014.3
20260905160808 95 5 1.0 3.0 0.00 0.00 0.00 57 1014.3
20260905160606 95 222 1.0 3.0 0.00 0.00 0.00 58 1014.4
20260905160406 95 248 1.0 3.0 0.00 0.00 0.00 59 1014.3
20260905160010 95 237 1.0 3.0 0.00 0.00 0.00 59 1014.4
20260905155806 95 245 1.0 2.0 0.00 0.00 0.00 60 1014.4
20260905155606 94 278 1.0 2.0 0.00 0.00 0.00 59 1014.3
20260905155208 94 217 1.0 3.0 0.00 0.00 0.00 60 1014.3
20260905155006 94 215 1.0 3.0 0.00 0.00 0.00 63 1014.4
20260905154806 94 206 1.0 3.0 0.00 0.00 0.00 63 1014.4
20260905154606 93 219 1.0 3.0 0.00 0.00 0.00 63 1014.4
20260905154406 93 256 0.0 3.0 0.00 0.00 0.00 64 1014.4
20260905154006 93 190 1.0 3.0 0.00 0.00 0.00 65 1014.4
20260905153606 92 227 1.0 3.0 0.00 0.00 0.00 65 1014.4
20260905153406 92 195 1.0 3.0 0.00 0.00 0.00 64 1014.3
20260905153210 92 194 1.0 3.0 0.00 0.00 0.00 65 1014.4
20260905153006 91 225 1.0 3.0 0.00 0.00 0.00 66 1014.4
20260905152606 91 317 1.0 3.0 0.00 0.00 0.00 67 1014.4
20260905152406 91 230 1.0 3.0 0.00 0.00 0.00 69 1014.4
20260905152006 90 284 1.0 3.0 0.00 0.00 0.00 68 1014.4
20260905151806 90 277 1.0 3.0 0.00 0.00 0.00 68 1014.5
20260905151606 89 282 1.0 3.0 0.00 0.00 0.00 71 1014.6
20260905151406 89 215 1.0 3.0 0.00 0.00 0.00 72 1014.5
20260905151209 89 216 1.0 3.0 0.00 0.00 0.00 72 1014.6
20260905151006 89 184 1.0 3.0 0.00 0.00 0.00 70 1014.5
20260905150806 88 274 1.0 3.0 0.00 0.00 0.00 72 1014.6
20260905150606 88 286 1.0 3.0 0.00 0.00 0.00 73 1014.6
20260905150406 88 240 1.0 2.0 0.00 0.00 0.00 75 1014.6
20260905150209 87 198 1.0 3.0 0.00 0.00 0.00 75 1014.7
20260905145806 87 225 1.0 3.0 0.00 0.00 0.00 77 1014.7
20260905145606 86 291 1.0 3.0 0.00 0.00 0.00 76 1014.7
20260905145406 86 265 1.0 3.0 0.00 0.00 0.00 77 1014.7
20260905145209 86 196 1.0 4.0 0.00 0.00 0.00 77 1014.6
20260905145006 86 198 1.0 4.0 0.00 0.00 0.00 79 1014.6
20260905144806 85 277 1.0 4.0 0.00 0.00 0.00 79 1014.6
20260905144606 85 313 1.0 4.0 0.00 0.00 0.00 80 1014.6
20260905144209 85 292 0.0 2.0 0.00 0.00 0.00 80 1014.6
20260905144006 84 290 0.0 2.0 0.00 0.00 0.00 81 1014.6
20260905143606 84 9 1.0 4.0 0.00 0.00 0.00 80 1014.6
20260905143406 83 9 1.0 4.0 0.00 0.00 0.00 82 1014.6
20260905143006 83 280 1.0 4.0 0.00 0.00 0.00 82 1014.7
20260905142606 83 284 1.0 3.0 0.00 0.00 0.00 83 1014.7
20260905142209 82 284 1.0 4.0 0.00 0.00 0.00 85 1014.8
20260905142006 81 284 1.0 4.0 0.00 0.00 0.00 86 1014.8
20260905141806 81 280 1.0 4.0 0.00 0.00 0.00 85 1014.7
20260905141605 81 281 2.0 4.0 0.00 0.00 0.00 86 1014.8
20260905141406 81 338 2.0 6.0 0.00 0.00 0.00 86 1014.9
20260905141209 80 338 2.0 6.0 0.00 0.00 0.00 87 1014.9
20260905141006 80 260 1.0 6.0 0.00 0.00 0.00 88 1014.9
20260905140606 80 280 0.0 5.0 0.00 0.00 0.00 88 1014.9
20260905140406 80 286 0.0 0.0 0.00 0.00 0.00 89 1014.9
20260905140210 80 286 0.0 0.0 0.00 0.00 0.00 89 1015.0
20260905140008 80 286 0.0 0.0 0.00 0.00 0.00 89 1015.0
20260905135805 79 271 0.0 0.0 0.00 0.00 0.00 90 1014.9
20260905135405 79 294 0.0 0.0 0.00 0.00 0.00 90 1015.0
20260905135207 79 294 0.0 0.0 0.00 0.00 0.00 91 1015.1
20260905134810 78 302 0.0 0.0 0.00 0.00 0.00 92 1015.0
20260905134606 78 29 0.0 0.0 0.00 0.00 0.00 92 1015.1
20260905134406 77 29 0.0 0.0 0.00 0.00 0.00 92 1015.0
20260905134206 77 272 0.0 0.0 0.00 0.00 0.00 94 1015.0
20260905133807 77 272 0.0 0.0 0.00 0.00 0.00 94 1015.0
20260905133605 76 272 0.0 0.0 0.00 0.00 0.00 95 1015.1
20260905133206 76 272 0.0 0.0 0.00 0.00 0.00 95 1015.1
20260905132806 76 272 0.0 0.0 0.00 0.00 0.00 95 1015.0
20260905132607 76 272 0.0 0.0 0.00 0.00 0.00 96 1015.1
20260905132411 75 272 0.0 0.0 0.00 0.00 0.00 96 1015.2
20260905132207 75 272 0.0 0.0 0.00 0.00 0.00 96 1015.0
20260905132006 75 272 0.0 0.0 0.00 0.00 0.00 96 1015.0
20260905131807 75 272 0.0 0.0 0.00 0.00 0.00 96 1015.2
20260905131606 75 272 0.0 0.0 0.00 0.00 0.00 97 1015.2
20260905131413 75 272 0.0 0.0 0.00 0.00 0.00 96 1015.3
20260905131206 74 272 0.0 0.0 0.00 0.00 0.00 97 1015.2
20260905130805 74 272 0.0 0.0 0.00 0.00 0.00 96 1015.2
20260905130606 74 272 0.0 0.0 0.00 0.00 0.00 95 1015.2
20260905130407 74 272 0.0 0.0 0.00 0.00 0.00 95 1015.2
20260905130205 73 272 0.0 0.0 0.00 0.00 0.00 95 1015.1
20260905130011 73 272 0.0 0.0 0.00 0.00 0.00 96 1015.1
20260905125806 73 272 0.0 0.0 0.00 0.00 0.00 95 1015.0
20260905125407 73 272 0.0 0.0 0.00 0.00 0.00 95 1015.1
20260905125206 73 272 0.0 0.0 0.00 0.00 0.00 95 1015.1
20260905125008 73 272 0.0 0.0 0.00 0.00 0.00 95 1015.1
20260905124806 73 272 0.0 0.0 0.00 0.00 0.00 95 1015.1
20260905124407 73 272 0.0 0.0 0.00 0.00 0.00 95 1015.0
20260905124008 73 272 0.0 0.0 0.00 0.00 0.00 95 1014.9
20260905123806 73 272 0.0 0.0 0.00 0.00 0.00 95 1014.9
20260905123407 72 272 0.0 0.0 0.00 0.00 0.00 95 1014.9
20260905123207 72 272 0.0 0.0 0.00 0.00 0.00 95 1014.9
20260905123008 72 272 0.0 0.0 0.00 0.00 0.00 96 1014.8
20260905122806 72 272 0.0 0.0 0.00 0.00 0.00 96 1014.9
20260905122606 72 272 0.0 0.0 0.00 0.00 0.00 95 1014.9
20260905122406 72 272 0.0 0.0 0.00 0.00 0.00 95 1014.8
20260905122007 71 236 0.0 0.0 0.00 0.00 0.00 94 1014.8
20260905121806 71 236 0.0 0.0 0.00 0.00 0.00 94 1014.8
20260905121606 71 236 0.0 0.0 0.00 0.00 0.00 94 1014.9
20260905121407 71 236 0.0 0.0 0.00 0.00 0.00 94 1014.8
20260905121206 71 236 0.0 0.0 0.00 0.00 0.00 94 1014.8
20260905121008 71 236 0.0 0.0 0.00 0.00 0.00 94 1014.8
20260905120806 71 236 0.0 0.0 0.00 0.00 0.00 93 1014.8
20260905120606 71 236 0.0 0.0 0.00 0.00 0.00 93 1014.7
20260905120407 71 236 0.0 0.0 0.00 0.00 0.00 93 1014.7
20260905115805 71 236 0.0 0.0 0.00 0.00 0.00 93 1014.7
20260905115605 71 236 0.0 0.0 0.00 0.00 0.00 93 1014.7
20260905115405 71 236 0.0 0.0 0.00 0.00 0.00 93 1014.7
20260905115205 71 236 0.0 0.0 0.00 0.00 0.00 93 1014.6
20260905114805 71 236 0.0 0.0 0.00 0.00 0.00 94 1014.6
20260905114607 71 236 0.0 0.0 0.00 0.00 0.00 93 1014.4
20260905114404 71 236 0.0 0.0 0.00 0.00 0.00 93 1014.6
20260905114204 71 236 0.0 0.0 0.00 0.00 0.00 93 1014.5
20260905114005 71 236 0.0 0.0 0.00 0.00 0.00 93 1014.5
20260905113805 71 236 0.0 0.0 0.00 0.00 0.00 93 1014.5
20260905113608 71 236 0.0 0.0 0.00 0.00 0.00 93 1014.5
20260905113405 71 236 0.0 0.0 0.00 0.00 0.00 93 1014.4
20260905113208 71 236 0.0 0.0 0.00 0.00 0.00 92 1014.5
20260905113004 71 236 0.0 0.0 0.00 0.00 0.00 93 1014.5
20260905112805 71 236 0.0 0.0 0.00 0.00 0.00 93 1014.4
20260905112605 71 236 0.0 0.0 0.00 0.00 0.00 93 1014.4
20260905112207 71 236 0.0 0.0 0.00 0.00 0.00 93 1014.3
20260905112005 71 236 0.0 0.0 0.00 0.00 0.00 93 1014.3
20260905111805 71 236 0.0 0.0 0.00 0.00 0.00 93 1014.3
20260905111605 71 236 0.0 0.0 0.00 0.00 0.00 92 1014.3
20260905111206 71 236 0.0 0.0 0.00 0.00 0.00 92 1014.4
20260905110808 71 236 0.0 0.0 0.00 0.00 0.00 92 1014.3
20260905110405 71 236 0.0 0.0 0.00 0.00 0.00 92 1014.3
20260905110205 71 236 0.0 0.0 0.00 0.00 0.00 92 1014.3
20260905105807 71 236 0.0 0.0 0.00 0.00 0.00 93 1014.3
20260905105605 71 236 0.0 0.0 0.00 0.00 0.00 93 1014.2
20260905105405 71 236 0.0 0.0 0.00 0.00 0.00 93 1014.2
20260905105205 71 236 0.0 0.0 0.00 0.00 0.00 92 1014.2
20260905105005 71 236 0.0 0.0 0.00 0.00 0.00 92 1014.2
20260905104405 71 236 0.0 0.0 0.00 0.00 0.00 93 1014.2
20260905104205 71 236 0.0 0.0 0.00 0.00 0.00 92 1014.2
20260905104004 71 236 0.0 0.0 0.00 0.00 0.00 92 1014.2
20260905103808 71 236 0.0 0.0 0.00 0.00 0.00 92 1014.1
20260905103407 71 236 0.0 0.0 0.00 0.00 0.00 92 1014.0
20260905103205 71 236 0.0 0.0 0.00 0.00 0.00 92 1014.0
20260905103004 71 236 0.0 0.0 0.00 0.00 0.00 92 1013.9
20260905102605 71 236 0.0 0.0 0.00 0.00 0.00 92 1013.9
20260905102407 71 236 0.0 0.0 0.00 0.00 0.00 92 1013.9
20260905102205 72 236 0.0 0.0 0.00 0.00 0.00 92 1013.8
20260905102005 72 236 0.0 0.0 0.00 0.00 0.00 92 1013.8
20260905101806 72 236 0.0 0.0 0.00 0.00 0.00 92 1013.9
20260905101408 72 236 0.0 0.0 0.00 0.00 0.00 92 1013.8
20260905101005 72 236 0.0 0.0 0.00 0.00 0.00 92 1013.7
20260905100807 72 236 0.0 0.0 0.00 0.00 0.00 92 1013.7
20260905100605 72 236 0.0 0.0 0.00 0.00 0.00 93 1013.7
20260905100407 72 236 0.0 0.0 0.00 0.00 0.00 93 1013.6
20260905100204 72 236 0.0 0.0 0.00 0.00 0.00 93 1013.7
20260905100009 72 236 0.0 0.0 0.00 0.00 0.00 92 1013.6
20260905095806 72 236 0.0 0.0 0.00 0.00 0.00 92 1013.6
20260905095605 72 236 0.0 0.0 0.00 0.00 0.00 92 1013.6
20260905095407 72 236 0.0 0.0 0.00 0.00 0.00 92 1013.7
20260905095205 72 236 0.0 0.0 0.00 0.00 0.00 91 1013.6
20260905095005 72 236 0.0 0.0 0.00 0.00 0.00 92 1013.5
20260905094807 72 236 0.0 0.0 0.00 0.00 0.00 92 1013.6
20260905094409 72 236 0.0 0.0 0.00 0.00 0.00 92 1013.6
20260905094205 72 236 0.0 0.0 0.00 0.00 0.00 91 1013.6
20260905094005 72 236 0.0 0.0 0.00 0.00 0.00 91 1013.6
20260905093805 72 236 0.0 0.0 0.00 0.00 0.00 91 1013.6
20260905093605 72 236 0.0 0.0 0.00 0.00 0.00 91 1013.6
20260905093007 72 236 0.0 0.0 0.00 0.00 0.00 91 1013.7
20260905092805 72 236 0.0 0.0 0.00 0.00 0.00 91 1013.7
20260905092605 72 236 0.0 0.0 0.00 0.00 0.00 91 1013.7
20260905092406 72 236 0.0 0.0 0.00 0.00 0.00 91 1013.6
20260905092206 72 236 0.0 0.0 0.00 0.00 0.00 90 1013.7
20260905092007 72 236 0.0 0.0 0.00 0.00 0.00 90 1013.9
20260905091805 72 236 0.0 0.0 0.00 0.00 0.00 90 1013.8
20260905091605 72 236 0.0 0.0 0.00 0.00 0.00 90 1013.9
20260905091406 72 236 0.0 0.0 0.00 0.00 0.00 90 1013.7
20260905091205 72 236 0.0 0.0 0.00 0.00 0.00 90 1013.7
20260905091007 72 236 0.0 0.0 0.00 0.00 0.00 90 1013.7
20260905090805 72 236 0.0 0.0 0.00 0.00 0.00 91 1013.8
20260905090406 72 236 0.0 0.0 0.00 0.00 0.00 91 1013.7
20260905090205 72 236 0.0 0.0 0.00 0.00 0.00 91 1013.7
20260905090010 72 236 0.0 0.0 0.00 0.00 0.00 91 1013.7
20260905085805 72 236 0.0 0.0 0.00 0.00 0.00 91 1013.7
20260905085605 72 236 0.0 0.0 0.00 0.00 0.00 91 1013.7
20260905085406 72 236 0.0 0.0 0.00 0.00 0.00 91 1013.8
20260905085007 72 236 0.0 0.0 0.00 0.00 0.00 91 1013.8
20260905084805 72 236 0.0 0.0 0.00 0.00 0.00 91 1013.8
20260905084606 72 236 0.0 0.0 0.00 0.00 0.00 91 1013.9
20260905084406 72 236 0.0 0.0 0.00 0.00 0.00 91 1013.9
20260905084205 72 236 0.0 0.0 0.00 0.00 0.00 91 1013.9
20260905083805 72 236 0.0 0.0 0.00 0.00 0.00 91 1013.9
20260905083605 72 236 0.0 0.0 0.00 0.00 0.00 91 1013.9
20260905083406 72 236 0.0 0.0 0.00 0.00 0.00 91 1013.9
20260905083205 72 236 0.0 0.0 0.00 0.00 0.00 91 1014.0
20260905083007 72 236 0.0 0.0 0.00 0.00 0.00 91 1014.0
20260905082805 72 236 0.0 0.0 0.00 0.00 0.00 91 1014.0
20260905082407 73 236 0.0 0.0 0.00 0.00 0.00 90 1013.9
20260905082206 73 236 0.0 0.0 0.00 0.00 0.00 91 1014.0
20260905082009 73 236 0.0 0.0 0.00 0.00 0.00 91 1014.1
20260905081605 73 236 0.0 0.0 0.00 0.00 0.00 91 1014.1
20260905081406 73 236 0.0 0.0 0.00 0.00 0.00 91 1014.1
20260905081205 73 236 0.0 0.0 0.00 0.00 0.00 91 1014.1
20260905081007 73 236 0.0 0.0 0.00 0.00 0.00 91 1014.1
20260905080805 73 236 0.0 0.0 0.00 0.00 0.00 90 1014.1
20260905080605 73 236 0.0 0.0 0.00 0.00 0.00 90 1014.1
20260905080406 73 236 0.0 0.0 0.00 0.00 0.00 90 1014.1
20260905080206 73 236 0.0 0.0 0.00 0.00 0.00 90 1014.2
20260905080010 73 236 0.0 0.0 0.00 0.00 0.00 90 1014.2
20260905075805 73 236 0.0 0.0 0.00 0.00 0.00 90 1014.2
20260905075605 73 236 0.0 0.0 0.00 0.00 0.00 90 1014.2
20260905075408 73 236 0.0 0.0 0.00 0.00 0.00 90 1014.2
20260905075005 73 236 0.0 0.0 0.00 0.00 0.00 90 1014.2
20260905074805 73 236 0.0 0.0 0.00 0.00 0.00 90 1014.2
20260905074605 73 236 0.0 0.0 0.00 0.00 0.00 90 1014.2
20260905074406 73 236 0.0 0.0 0.00 0.00 0.00 89 1014.3
20260905074007 73 236 0.0 0.0 0.00 0.00 0.00 89 1014.3
20260905073805 73 236 0.0 0.0 0.00 0.00 0.00 89 1014.3
20260905073606 73 236 0.0 0.0 0.00 0.00 0.00 89 1014.3
20260905073407 73 236 0.0 0.0 0.00 0.00 0.00 88 1014.2
20260905073205 73 236 0.0 0.0 0.00 0.00 0.00 88 1014.2
20260905073007 73 236 0.0 0.0 0.00 0.00 0.00 88 1014.1
20260905072805 73 236 0.0 0.0 0.00 0.00 0.00 89 1014.1
20260905072606 73 236 0.0 0.0 0.00 0.00 0.00 88 1014.2
20260905072407 73 236 0.0 0.0 0.00 0.00 0.00 88 1014.2
20260905072007 74 236 0.0 0.0 0.00 0.00 0.00 88 1014.2
20260905071805 74 236 0.0 0.0 0.00 0.00 0.00 88 1014.1
20260905071605 74 236 0.0 0.0 0.00 0.00 0.00 88 1014.1
20260905071406 74 236 0.0 0.0 0.00 0.00 0.00 88 1014.2
20260905071205 74 236 0.0 0.0 0.00 0.00 0.00 88 1014.2
20260905071007 74 236 0.0 0.0 0.00 0.00 0.00 88 1014.2
20260905070805 74 236 0.0 0.0 0.00 0.00 0.00 88 1014.1
20260905070605 74 236 0.0 0.0 0.00 0.00 0.00 88 1014.1
20260905070405 74 236 0.0 0.0 0.00 0.00 0.00 88 1014.1
20260905070008 74 236 0.0 0.0 0.00 0.00 0.00 88 1014.2
20260905065806 74 236 0.0 0.0 0.00 0.00 0.00 88 1014.2
20260905065605 74 236 0.0 1.0 0.00 0.00 0.00 88 1014.2
20260905065408 74 236 0.0 1.0 0.00 0.00 0.00 88 1014.3
20260905065210 74 236 0.0 1.0 0.00 0.00 0.00 88 1014.2
20260905064804 74 236 0.0 1.0 0.00 0.00 0.00 89 1014.3
20260905064605 74 236 0.0 0.0 0.00 0.00 0.00 88 1014.4
20260905064406 74 236 0.0 0.0 0.00 0.00 0.00 88 1014.3
20260905064205 75 236 0.0 0.0 0.00 0.00 0.00 88 1014.3
20260905064007 75 236 0.0 0.0 0.00 0.00 0.00 88 1014.4
20260905063805 75 236 0.0 0.0 0.00 0.00 0.00 88 1014.4
20260905063605 75 236 0.0 0.0 0.00 0.00 0.00 88 1014.4
20260905063406 75 236 0.0 0.0 0.00 0.00 0.00 88 1014.5
20260905063205 75 236 0.0 0.0 0.00 0.00 0.00 88 1014.5
20260905062805 75 236 0.0 0.0 0.00 0.00 0.00 88 1014.5
20260905062605 75 236 0.0 0.0 0.00 0.00 0.00 88 1014.6
20260905062406 75 236 0.0 0.0 0.00 0.00 0.00 88 1014.6
20260905062205 75 236 0.0 0.0 0.00 0.00 0.00 88 1014.7
20260905062007 75 236 0.0 0.0 0.00 0.00 0.00 88 1014.6
20260905061806 75 236 0.0 0.0 0.00 0.00 0.00 88 1014.6
20260905061604 75 236 0.0 0.0 0.00 0.00 0.00 88 1014.7
20260905061406 75 236 0.0 0.0 0.00 0.00 0.00 88 1014.7
20260905061205 75 236 0.0 0.0 0.00 0.00 0.00 88 1014.7
20260905061007 75 236 0.0 0.0 0.00 0.00 0.00 88 1014.7
20260905060805 75 236 0.0 0.0 0.00 0.00 0.00 89 1014.7
20260905060605 75 236 0.0 0.0 0.00 0.00 0.00 89 1014.8
20260905060406 75 236 0.0 0.0 0.00 0.00 0.00 88 1014.8
20260905060205 75 236 0.0 0.0 0.00 0.00 0.00 88 1014.9
20260905060009 75 236 0.0 1.0 0.00 0.00 0.00 88 1015.0
20260905055805 75 236 0.0 1.0 0.00 0.00 0.00 88 1014.9
20260905055406 75 236 0.0 1.0 0.00 0.00 0.00 87 1015.0
20260905055205 75 236 0.0 1.0 0.00 0.00 0.00 88 1015.1
20260905054806 76 236 0.0 0.0 0.00 0.00 0.00 87 1015.1
20260905054605 76 236 0.0 0.0 0.00 0.00 0.00 87 1015.0
20260905054007 76 236 0.0 2.0 0.00 0.00 0.00 88 1014.9
20260905053805 76 236 0.0 2.0 0.00 0.00 0.00 88 1014.9
20260905053605 76 236 0.0 2.0 0.00 0.00 0.00 88 1014.8
20260905053406 76 236 0.0 2.0 0.00 0.00 0.00 88 1014.9
20260905053205 76 236 0.0 0.0 0.00 0.00 0.00 87 1014.9
20260905053007 76 236 0.0 0.0 0.00 0.00 0.00 87 1014.8
20260905052805 76 236 0.0 0.0 0.00 0.00 0.00 87 1014.8
20260905052605 76 236 0.0 0.0 0.00 0.00 0.00 87 1014.8
20260905052406 76 236 0.0 0.0 0.00 0.00 0.00 87 1014.8
20260905052205 76 236 0.0 0.0 0.00 0.00 0.00 87 1014.8
20260905052007 76 236 0.0 0.0 0.00 0.00 0.00 87 1014.8
20260905051806 76 236 0.0 0.0 0.00 0.00 0.00 86 1014.8
20260905051605 76 236 0.0 0.0 0.00 0.00 0.00 87 1014.8
20260905051406 76 236 0.0 0.0 0.00 0.00 0.00 87 1014.8
20260905051205 76 236 0.0 0.0 0.00 0.00 0.00 86 1014.9
20260905050805 76 236 0.0 0.0 0.00 0.00 0.00 86 1015.0
20260905050605 76 236 0.0 0.0 0.00 0.00 0.00 86 1015.0
20260905050406 76 236 0.0 0.0 0.00 0.00 0.00 86 1014.9
20260905050205 76 236 0.0 0.0 0.00 0.00 0.00 86 1014.9
20260905045805 76 236 0.0 0.0 0.00 0.00 0.00 86 1014.9
20260905045605 76 236 0.0 0.0 0.00 0.00 0.00 86 1015.0
20260905045406 76 236 0.0 0.0 0.00 0.00 0.00 86 1014.9
20260905045007 76 236 0.0 0.0 0.00 0.00 0.00 86 1014.8
20260905044605 77 236 0.0 0.0 0.00 0.00 0.00 86 1014.9
20260905044205 77 236 0.0 0.0 0.00 0.00 0.00 85 1015.1
20260905044007 77 236 0.0 0.0 0.00 0.00 0.00 85 1015.1
20260905043805 77 236 0.0 0.0 0.00 0.00 0.00 85 1015.0
20260905043406 77 236 0.0 0.0 0.00 0.00 0.00 85 1014.9
20260905043205 77 236 0.0 0.0 0.00 0.00 0.00 85 1014.9
20260905043007 77 236 0.0 0.0 0.00 0.00 0.00 85 1014.9
20260905042805 77 236 0.0 0.0 0.00 0.00 0.00 85 1014.8
20260905042607 77 236 0.0 0.0 0.00 0.00 0.00 85 1014.9
20260905042406 77 236 0.0 0.0 0.00 0.00 0.00 85 1014.8
20260905042205 77 236 0.0 0.0 0.00 0.00 0.00 85 1014.8
20260905042007 77 236 0.0 0.0 0.00 0.00 0.00 85 1014.9
20260905041805 77 236 0.0 0.0 0.00 0.00 0.00 85 1014.9
20260905041405 77 236 0.0 0.0 0.00 0.00 0.00 85 1015.0
20260905041206 77 236 0.0 0.0 0.00 0.00 0.00 85 1015.0
20260905041006 77 236 0.0 0.0 0.00 0.00 0.00 85 1014.9
20260905040805 77 236 0.0 0.0 0.00 0.00 0.00 85 1015.0
20260905040608 77 236 0.0 0.0 0.00 0.00 0.00 85 1015.1
20260905040015 78 236 0.0 0.0 0.00 0.00 0.00 85 1015.1
20260905035807 78 236 0.0 0.0 0.00 0.00 0.00 85 1015.1
20260905035607 78 236 0.0 0.0 0.00 0.00 0.00 85 1015.1
20260905035207 78 236 0.0 0.0 0.00 0.00 0.00 84 1015.2
20260905035009 78 236 0.0 0.0 0.00 0.00 0.00 85 1015.2
20260905034808 78 236 0.0 0.0 0.00 0.00 0.00 85 1015.3
20260905034207 78 236 0.0 0.0 0.00 0.00 0.00 84 1015.4
20260905034011 78 236 0.0 0.0 0.00 0.00 0.00 84 1015.5
20260905033807 78 236 0.0 0.0 0.00 0.00 0.00 84 1015.5
20260905033607 78 236 0.0 0.0 0.00 0.00 0.00 84 1015.5
20260905033409 78 236 0.0 0.0 0.00 0.00 0.00 83 1015.5
20260905033208 78 236 0.0 0.0 0.00 0.00 0.00 83 1015.6
20260905033009 78 236 0.0 0.0 0.00 0.00 0.00 83 1015.6
20260905032807 78 236 0.0 0.0 0.00 0.00 0.00 83 1015.6
20260905032607 78 236 0.0 0.0 0.00 0.00 0.00 83 1015.5
20260905032408 78 236 0.0 0.0 0.00 0.00 0.00 83 1015.5
20260905032207 78 236 0.0 0.0 0.00 0.00 0.00 83 1015.5
20260905032009 78 236 0.0 0.0 0.00 0.00 0.00 83 1015.5
20260905031808 79 236 0.0 0.0 0.00 0.00 0.00 83 1015.4
20260905031607 79 236 0.0 0.0 0.00 0.00 0.00 82 1015.4
20260905031409 79 236 0.0 0.0 0.00 0.00 0.00 83 1015.5
20260905031207 79 236 0.0 0.0 0.00 0.00 0.00 83 1015.5
20260905030807 79 236 0.0 0.0 0.00 0.00 0.00 82 1015.5
20260905030607 79 236 0.0 0.0 0.00 0.00 0.00 82 1015.5
20260905030409 79 236 0.0 0.0 0.00 0.00 0.00 82 1015.6
20260905030207 79 236 0.0 0.0 0.00 0.00 0.00 82 1015.5
20260905030012 79 236 0.0 0.0 0.00 0.00 0.00 82 1015.5
20260905025807 79 236 0.0 0.0 0.00 0.00 0.00 82 1015.5
20260905025607 79 236 0.0 0.0 0.00 0.00 0.00 82 1015.5
20260905025409 79 236 0.0 0.0 0.00 0.00 0.00 82 1015.5
20260905025009 79 236 0.0 0.0 0.00 0.00 0.00 83 1015.6
20260905024807 79 236 0.0 0.0 0.00 0.00 0.00 82 1015.7
20260905024609 80 236 0.0 0.0 0.00 0.00 0.00 82 1015.7
20260905024409 80 236 0.0 0.0 0.00 0.00 0.00 82 1015.7
20260905024010 80 236 0.0 0.0 0.00 0.00 0.00 82 1015.8
20260905023607 80 236 0.0 0.0 0.00 0.00 0.00 82 1015.6
20260905023409 80 236 0.0 0.0 0.00 0.00 0.00 82 1015.7
20260905023207 80 236 0.0 0.0 0.00 0.00 0.00 82 1015.7
20260905023009 80 236 0.0 0.0 0.00 0.00 0.00 83 1015.6
20260905022807 80 236 0.0 0.0 0.00 0.00 0.00 83 1015.7
20260905022607 80 236 0.0 0.0 0.00 0.00 0.00 83 1015.7
20260905022410 80 236 0.0 0.0 0.00 0.00 0.00 83 1015.8
20260905022208 81 236 0.0 0.0 0.00 0.00 0.00 81 1015.8
20260905022010 81 236 0.0 0.0 0.00 0.00 0.00 80 1015.7
20260905021807 81 236 0.0 0.0 0.00 0.00 0.00 80 1015.7
20260905021608 81 236 0.0 0.0 0.00 0.00 0.00 80 1015.7
20260905021409 81 236 0.0 0.0 0.00 0.00 0.00 80 1015.6
20260905021209 81 236 0.0 0.0 0.00 0.00 0.00 80 1015.8
20260905021010 81 236 0.0 0.0 0.00 0.00 0.00 81 1015.7
20260905020808 81 236 0.0 0.0 0.00 0.00 0.00 80 1015.7
20260905020409 81 236 0.0 0.0 0.00 0.00 0.00 79 1015.7
20260905020207 81 236 0.0 0.0 0.00 0.00 0.00 79 1015.7
20260905015807 81 236 0.0 0.0 0.00 0.00 0.00 79 1015.7
20260905015209 82 236 0.0 0.0 0.00 0.00 0.00 78 1015.7
20260905015010 82 236 0.0 0.0 0.00 0.00 0.00 78 1015.7
20260905014409 82 236 0.0 0.0 0.00 0.00 0.00 78 1015.7
20260905014207 82 236 0.0 0.0 0.00 0.00 0.00 78 1015.6
20260905014010 82 236 0.0 0.0 0.00 0.00 0.00 78 1015.5
20260905013809 82 236 0.0 0.0 0.00 0.00 0.00 78 1015.5
20260905013607 82 236 0.0 0.0 0.00 0.00 0.00 77 1015.7
20260905013407 82 236 0.0 0.0 0.00 0.00 0.00 77 1015.6
20260905013207 83 236 0.0 0.0 0.00 0.00 0.00 77 1015.6
20260905013010 83 236 0.0 0.0 0.00 0.00 0.00 77 1015.6
20260905012807 83 236 0.0 0.0 0.00 0.00 0.00 77 1015.6
20260905012607 83 236 0.0 0.0 0.00 0.00 0.00 77 1015.6
20260905012407 83 236 0.0 0.0 0.00 0.00 0.00 76 1015.6
20260905012207 83 236 0.0 0.0 0.00 0.00 0.00 76 1015.6
20260905011807 83 236 0.0 0.0 0.00 0.00 0.00 76 1015.6
20260905011607 83 236 0.0 0.0 0.00 0.00 0.00 76 1015.6
20260905011407 84 236 0.0 0.0 0.00 0.00 0.00 76 1015.6
20260905011207 84 236 0.0 0.0 0.00 0.00 0.00 76 1015.6
20260905010807 84 236 0.0 0.0 0.00 0.00 0.00 75 1015.6
20260905010607 84 236 0.0 0.0 0.00 0.00 0.00 75 1015.5
20260905010407 84 236 0.0 0.0 0.00 0.00 0.00 75 1015.6
20260905010207 84 236 0.0 0.0 0.00 0.00 0.00 75 1015.6
20260905010010 84 236 0.0 0.0 0.00 0.00 0.00 75 1015.6
20260905005809 84 236 0.0 0.0 0.00 0.00 0.00 74 1015.5
20260905005607 84 236 0.0 0.0 0.00 0.00 0.00 74 1015.5
20260905005409 85 236 0.0 0.0 0.00 0.00 0.00 75 1015.5
20260905005208 85 236 0.0 0.0 0.00 0.00 0.00 74 1015.5
20260905005009 85 236 0.0 0.0 0.00 0.00 0.00 74 1015.4
20260905004808 85 236 0.0 0.0 0.00 0.00 0.00 74 1015.4
20260905004607 85 236 0.0 0.0 0.00 0.00 0.00 73 1015.4
20260905004409 85 236 0.0 0.0 0.00 0.00 0.00 74 1015.3
20260905004009 85 236 0.0 0.0 0.00 0.00 0.00 73 1015.4
20260905003807 85 236 0.0 0.0 0.00 0.00 0.00 73 1015.4
20260905003607 86 236 0.0 0.0 0.00 0.00 0.00 73 1015.4
20260905003409 86 236 0.0 0.0 0.00 0.00 0.00 72 1015.4
20260905003207 86 236 0.0 0.0 0.00 0.00 0.00 72 1015.3
20260905003013 86 236 0.0 0.0 0.00 0.00 0.00 72 1015.3
20260905002807 86 236 0.0 0.0 0.00 0.00 0.00 72 1015.2
20260905002607 86 236 0.0 0.0 0.00 0.00 0.00 72 1015.2
20260905002410 86 236 0.0 0.0 0.00 0.00 0.00 71 1015.2
20260905002207 86 236 0.0 0.0 0.00 0.00 0.00 71 1015.2
20260905002009 86 236 0.0 0.0 0.00 0.00 0.00 70 1015.2
20260905001807 87 236 0.0 0.0 0.00 0.00 0.00 70 1015.0
20260905001607 87 236 0.0 0.0 0.00 0.00 0.00 70 1015.0
20260905001409 87 236 0.0 0.0 0.00 0.00 0.00 70 1015.0
20260905001207 87 236 0.0 0.0 0.00 0.00 0.00 69 1014.9
20260905001009 87 236 0.0 0.0 0.00 0.00 0.00 69 1014.9
20260905000810 87 236 0.0 0.0 0.00 0.00 0.00 69 1014.9
20260905000609 87 236 0.0 0.0 0.00 0.00 0.00 69 1014.9
20260905000207 88 236 0.0 0.0 0.00 0.00 0.00 68 1014.9
20260905000012 88 236 0.0 0.0 0.00 0.00 0.00 69 1014.9
20260904235807 88 236 0.0 0.0 0.00 0.00 0.00 68 1014.9
20260904235609 88 236 0.0 0.0 0.00 0.00 0.00 68 1014.9
20260904235409 88 236 0.0 0.0 0.00 0.00 0.00 69 1015.0
20260904235207 89 236 0.0 0.0 0.00 0.00 0.00 69 1014.9
20260904235010 89 236 0.0 0.0 0.00 0.00 0.00 68 1014.8
20260904234807 89 236 0.0 0.0 0.00 0.00 0.00 67 1014.8
20260904234607 89 236 0.0 0.0 0.00 0.00 0.00 67 1014.8
20260904234407 89 236 0.0 0.0 0.00 0.00 0.00 66 1014.7
20260904234207 89 236 0.0 0.0 0.00 0.00 0.00 66 1014.9
20260904234009 89 236 0.0 0.0 0.00 0.00 0.00 66 1014.9
20260904233407 90 236 0.0 0.0 0.00 0.00 0.00 65 1014.7
20260904233207 90 236 0.0 0.0 0.00 0.00 0.00 65 1014.7
20260904232807 90 236 0.0 0.0 0.00 0.00 0.00 64 1014.8
20260904232608 91 236 0.0 0.0 0.00 0.00 0.00 64 1014.8
20260904232407 91 236 0.0 0.0 0.00 0.00 0.00 64 1014.7
20260904232209 91 236 0.0 0.0 0.00 0.00 0.00 64 1014.7
20260904232007 91 236 0.0 0.0 0.00 0.00 0.00 63 1014.7
20260904231807 91 236 0.0 0.0 0.00 0.00 0.00 63 1014.7
20260904231608 91 236 0.0 0.0 0.00 0.00 0.00 63 1014.7
20260904231407 91 236 0.0 0.0 0.00 0.00 0.00 63 1014.7
20260904231007 92 236 0.0 0.0 0.00 0.00 0.00 63 1014.7
20260904230807 92 236 0.0 0.0 0.00 0.00 0.00 62 1014.7
20260904230607 92 236 0.0 0.0 0.00 0.00 0.00 62 1014.6
20260904230407 92 236 0.0 0.0 0.00 0.00 0.00 62 1014.7
20260904230210 92 236 0.0 0.0 0.00 0.00 0.00 61 1014.6
20260904225807 92 236 0.0 0.0 0.00 0.00 0.00 61 1014.6
20260904225607 92 236 0.0 0.0 0.00 0.00 0.00 61 1014.5
20260904225407 93 236 0.0 0.0 0.00 0.00 0.00 60 1014.6
20260904225210 93 236 0.0 0.0 0.00 0.00 0.00 60 1014.6
20260904225007 93 236 0.0 0.0 0.00 0.00 0.00 60 1014.5
20260904224607 93 236 0.0 2.0 0.00 0.00 0.00 59 1014.6
20260904224407 93 236 0.0 2.0 0.00 0.00 0.00 59 1014.5
20260904224007 93 236 0.0 2.0 0.00 0.00 0.00 59 1014.5
20260904223807 93 236 0.0 2.0 0.00 0.00 0.00 58 1014.4
20260904223607 93 236 0.0 1.0 0.00 0.00 0.00 58 1014.4
20260904223407 93 236 0.0 0.0 0.00 0.00 0.00 57 1014.5
20260904223209 93 236 0.0 0.0 0.00 0.00 0.00 57 1014.5
20260904223007 93 236 0.0 1.0 0.00 0.00 0.00 58 1014.5